Location: Akdamlar
(36.8729°N, 30.5187°E)
Time: 18:07:34
(UTC+00:00)

In-Cosmos 22 - Pass Details

Date: 18 September 2020
Orbit: 785 x 876 km, 81.2° (Epoch: 27 October)

Event Time Altitude Azimuth Distance (km) Brightness Sun altitude
Rises 17:29:46 0° 355° (N) 3,283 7.6 -18.4°
Reaches altitude 10° 17:32:10 10° 359° (N) 2,354 6.7 -18.9°
Maximum altitude 17:37:24 61° 80° (E) 901 4.0 -19.9°
Enters shadow 17:39:44 33° 147° (SSE) 1,327 4.8 -20.3°
